ORBCOMM FM118 [+]

Last updated on Fri Dec 29 2023 00:02:54 GMT+0000 (Coordinated Universal Time)

1 41183U 15081E 23361.88268103 .00001788 00000+0 43818-3 0 9993 2 41183 47.0035 300.1736 0002104 245.8515 114.2150 14.56203578426169
UTC large
Height (km)
Speed (km/s)
/
Latitude / Longitude
Inclination (degrees)
Orbital Period (minutes)
Azimuth
Elevation
Range (km)
Doppler Factor

Next 0 passes for location: London (51.5072 / 0.1276)

Sorry there are no passes over London.